PE1NIB-13 Weather Reports


Display with metric or nautical units.
time (UTC)temp
F
wind
direction
speed
MPH
gust
MPH
rain 1hr
in
rain 24hr
in
rain mn
in
humidity
%
barometer
mb
20260506012919 48 302 2.0 7.0 0.00 0.01 0.00 85 1007.8
20260506011804 49 300 3.0 7.0 0.00 0.02 0.00 85 1007.9
20260506010903 49 302 2.0 7.0 0.00 0.02 0.00 84 1007.9
20260506010008 49 287 2.0 7.0 0.00 0.03 0.00 83 1007.9
20260506005617 49 292 2.0 7.0 0.00 0.03 0.00 83 1007.9
20260506004720 49 286 2.0 7.0 0.00 0.03 0.00 83 1008.2
20260506003817 49 301 3.0 7.0 0.00 0.03 0.00 82 1008.1
20260506002919 49 298 2.0 4.0 0.00 0.03 0.00 82 1008.0
20260506002017 50 300 2.0 7.0 0.00 0.03 0.00 81 1008.1
20260506001119 50 298 2.0 7.0 0.00 0.03 0.00 82 1008.3
20260506000221 50 308 2.0 9.0 0.00 0.04 0.00 81 1008.2
20260505235403 50 309 2.0 7.0 0.00 0.04 0.00 81 1008.3
20260505234504 50 300 2.0 8.0 0.00 0.05 0.00 81 1008.4
20260505233603 50 304 2.0 7.0 0.00 0.05 0.00 81 1008.4
20260505232920 50 306 2.0 4.0 0.00 0.06 0.00 81 1008.4
20260505231803 50 287 2.0 7.0 0.00 0.08 0.00 80 1008.8
20260505230903 50 292 2.0 7.0 0.00 0.10 0.00 80 1008.7
20260505230003 50 285 2.0 7.0 0.00 0.11 0.00 80 1008.7
20260505225403 50 296 3.0 7.0 0.00 0.12 0.00 79 1008.5
20260505224721 50 303 3.0 7.0 0.00 0.16 0.00 79 1008.6
20260505223603 51 301 3.0 8.0 0.00 0.32 0.00 79 1008.9
20260505222708 51 309 2.0 7.0 0.00 0.35 0.00 79 1009.0
20260505221803 51 309 2.0 8.0 0.00 0.35 0.00 79 1008.7
20260505220904 51 296 2.0 8.0 0.00 0.35 0.00 79 1008.9
20260505220218 51 295 3.0 8.0 0.00 0.36 0.00 79 1009.0
20260505215619 51 300 3.0 8.0 0.00 0.36 0.36 79 1008.8
20260505214716 51 301 3.0 7.0 0.00 0.36 0.36 79 1009.0
20260505213604 51 306 2.0 6.0 0.00 0.36 0.36 79 1009.3
20260505212703 51 287 2.0 7.0 0.00 0.36 0.36 79 1009.1
20260505212019 51 289 2.0 7.0 0.00 0.36 0.36 79 1009.2
20260505211121 51 291 2.0 3.0 0.00 0.36 0.36 80 1009.1
20260505210003 51 306 2.0 3.0 0.00 0.36 0.36 80 1009.0
20260505205403 51 315 3.0 6.0 0.00 0.36 0.36 79 1009.3
20260505204503 51 271 3.0 7.0 0.00 0.36 0.36 80 1009.4
20260505203603 51 301 3.0 6.0 0.00 0.36 0.36 80 1009.5
20260505202704 51 294 2.0 4.0 0.00 0.36 0.36 80 1009.4
20260505201804 52 302 3.0 6.0 0.00 0.36 0.36 79 1009.4
20260505201122 52 287 2.0 7.0 0.00 0.36 0.36 79 1009.3
20260505200219 52 268 2.0 4.0 0.00 0.36 0.36 80 1009.3
20260505195620 52 311 2.0 8.0 0.00 0.36 0.36 80 1009.4
20260505194718 52 300 3.0 8.0 0.00 0.36 0.36 79 1009.2
20260505193820 52 290 2.0 6.0 0.00 0.36 0.36 80 1009.2
20260505192918 52 289 2.0 4.0 0.00 0.36 0.36 80 1009.1
20260505192020 52 281 1.0 3.0 0.00 0.36 0.36 79 1009.1
20260505190903 52 290 2.0 8.0 0.00 0.36 0.36 80 1008.9
20260505190004 52 278 1.0 4.0 0.00 0.36 0.36 80 1008.9
20260505185403 52 310 2.0 4.0 0.00 0.36 0.36 79 1008.9
20260505184503 52 289 2.0 7.0 0.00 0.36 0.36 79 1008.9
20260505183604 52 292 2.0 8.0 0.00 0.36 0.36 79 1008.9
20260505182918 52 274 3.0 8.0 0.00 0.36 0.36 79 1008.8
20260505182020 53 272 2.0 9.0 0.00 0.36 0.36 78 1008.9
20260505181118 53 296 2.0 9.0 0.00 0.36 0.36 78 1008.7
20260505180003 53 285 2.0 6.0 0.00 0.36 0.36 77 1008.8
20260505175404 53 277 2.0 4.0 0.00 0.36 0.36 77 1008.8
20260505174503 53 295 1.0 3.0 0.00 0.36 0.36 77 1008.8
20260505173603 53 298 2.0 4.0 0.00 0.36 0.36 77 1008.9
20260505172703 54 272 2.0 4.0 0.00 0.36 0.36 76 1008.9
20260505171804 54 262 2.0 7.0 0.00 0.36 0.36 76 1008.9
20260505170903 54 273 1.0 7.0 0.00 0.36 0.36 77 1009.0
20260505170003 54 273 3.0 7.0 0.00 0.36 0.36 76 1008.9
20260505165403 54 266 2.0 6.0 0.00 0.36 0.36 75 1008.9
20260505164503 54 295 3.0 6.0 0.00 0.36 0.36 76 1009.0
20260505163817 54 281 2.0 6.0 0.00 0.36 0.36 76 1009.0
20260505162919 54 305 2.0 8.0 0.00 0.36 0.36 77 1008.8
20260505161803 53 295 3.0 7.0 0.00 0.36 0.36 76 1009.3
20260505160903 54 282 2.0 6.0 0.00 0.36 0.36 77 1009.0
20260505160221 54 301 2.0 6.0 0.00 0.36 0.36 77 1009.2
20260505152920 54 275 2.0 4.0 0.00 0.36 0.36 77 1009.5
20260505152017 54 282 2.0 4.0 0.00 0.36 0.36 77 1009.4
20260505151120 54 286 2.0 4.0 0.00 0.36 0.36 77 1009.4
20260505150217 54 286 1.0 4.0 0.00 0.36 0.36 78 1009.7
20260505124504 54 306 2.0 6.0 0.00 0.36 0.36 79 1010.2
20260505123603 53 284 2.0 7.0 0.00 0.36 0.36 80 1010.3
20260505122704 53 288 2.0 4.0 0.00 0.36 0.36 79 1010.4
20260505122019 53 305 2.0 4.0 0.00 0.36 0.36 79 1010.4
20260505121116 53 298 1.0 6.0 0.00 0.36 0.36 81 1010.4
20260505120004 53 294 2.0 4.0 0.00 0.36 0.36 82 1010.4
20260505115403 53 240 2.0 3.0 0.00 0.36 0.36 81 1010.5
20260505114503 53 246 1.0 2.0 0.00 0.36 0.36 82 1010.6
20260505113603 53 159 1.0 4.0 0.00 0.36 0.36 81 1010.5
20260505112917 53 318 1.0 4.0 0.00 0.36 0.36 81 1010.7
20260505112020 53 309 2.0 4.0 0.00 0.36 0.36 81 1010.7
20260505111117 52 303 2.0 7.0 0.00 0.36 0.36 82 1010.7
20260505110220 52 286 2.0 4.0 0.00 0.36 0.36 82 1010.6
20260505102020 52 214 2.0 4.0 0.00 0.36 0.36 84 1010.7
20260505101118 51 224 2.0 4.0 0.00 0.36 0.36 83 1010.8
20260505100220 51 102 2.0 6.0 0.00 0.36 0.36 84 1011.1
20260505095403 51 134 2.0 7.0 0.00 0.36 0.36 83 1010.9
20260505094719 51 292 2.0 7.0 0.00 0.36 0.36 84 1011.0
20260505093604 51 143 2.0 7.0 0.00 0.36 0.36 85 1011.0
20260505092703 50 255 2.0 4.0 0.00 0.36 0.36 85 1011.1
20260505092021 50 247 2.0 4.0 0.00 0.36 0.36 86 1010.9
20260505091118 50 229 2.0 4.0 0.00 0.36 0.36 86 1010.9
20260505090003 50 304 1.0 4.0 0.00 0.36 0.36 86 1011.2
20260505085403 50 139 2.0 4.0 0.00 0.36 0.36 87 1011.0
20260505084503 50 255 1.0 2.0 0.00 0.36 0.36 87 1011.0
20260505083817 50 221 1.0 2.0 0.00 0.36 0.36 87 1011.0
20260505082919 50 172 2.0 4.0 0.00 0.36 0.36 87 1011.0
20260505081803 50 256 2.0 6.0 0.00 0.36 0.36 87 1011.0
20260505081119 50 306 2.0 6.0 0.00 0.36 0.36 87 1011.1
20260505080003 50 288 1.0 7.0 0.00 0.36 0.36 87 1011.1
20260505075403 50 283 1.0 7.0 0.00 0.36 0.36 87 1010.8
20260505074503 50 233 1.0 3.0 0.00 0.36 0.36 88 1010.9
20260505073604 49 183 2.0 7.0 0.00 0.36 0.36 88 1010.9
20260505072703 49 323 2.0 6.0 0.00 0.36 0.36 88 1010.8
20260505071803 49 29 1.0 2.0 0.00 0.36 0.36 88 1010.8
20260505070903 49 259 2.0 6.0 0.00 0.36 0.36 89 1010.9
20260505070217 49 253 2.0 6.0 0.00 0.36 0.36 88 1011.1
20260505065619 49 315 2.0 4.0 0.00 0.36 0.36 88 1011.2
20260505064503 49 265 1.0 4.0 0.00 0.36 0.36 88 1011.3
20260505063603 49 197 1.0 3.0 0.00 0.36 0.36 89 1011.4
20260505062703 49 269 2.0 6.0 0.00 0.36 0.36 88 1011.3
20260505061803 49 279 2.0 4.0 0.00 0.36 0.36 88 1011.3
20260505060903 49 303 2.0 7.0 0.00 0.36 0.36 88 1011.5
20260505060003 49 282 2.0 7.0 0.00 0.36 0.36 88 1011.5
20260505055403 49 283 2.0 6.0 0.00 0.36 0.36 88 1011.3
20260505054503 49 298 2.0 6.0 0.00 0.36 0.36 88 1011.3
20260505053824 49 303 2.0 3.0 0.00 0.36 0.36 89 1011.3
20260505052921 49 326 2.0 7.0 0.00 0.36 0.36 89 1011.2
20260505051804 49 309 2.0 4.0 0.00 0.36 0.36 90 1011.0
20260505050903 49 303 2.0 6.0 0.00 0.36 0.36 90 1010.9
20260505040904 49 298 2.0 7.0 0.00 0.37 0.36 91 1011.1
20260505040004 50 316 2.0 8.0 0.00 0.37 0.36 91 1011.1
20260505035403 50 315 2.0 4.0 0.00 0.37 0.36 91 1010.8
20260505034718 50 299 1.0 4.0 0.00 0.37 0.36 91 1010.7
20260505033820 50 256 1.0 4.0 0.00 0.37 0.36 91 1010.6
20260505032917 50 201 1.0 4.0 0.00 0.37 0.36 90 1010.7
20260505032020 50 170 1.0 4.0 0.00 0.37 0.36 91 1010.9
20260505031117 51 264 1.0 4.0 0.00 0.37 0.36 91 1011.1
20260505030008 51 307 1.0 6.0 0.00 0.37 0.36 92 1010.9
20260505025403 51 308 1.0 6.0 0.00 0.37 0.36 92 1011.2
20260505024718 51 303 2.0 6.0 0.01 0.37 0.36 92 1011.2
20260505023821 51 293 2.0 6.0 0.01 0.37 0.36 92 1011.1
20260505022918 51 292 2.0 4.0 0.01 0.37 0.36 92 1011.1
20260505022020 51 287 2.0 6.0 0.02 0.37 0.36 92 1011.2
20260505020903 51 295 3.0 8.0 0.02 0.37 0.36 92 1011.0
20260505020003 51 303 2.0 6.0 0.03 0.37 0.36 92 1011.1
20260505015403 52 311 2.0 4.0 0.03 0.37 0.36 92 1011.1
20260505014503 52 302 2.0 4.0 0.02 0.36 0.35 92 1011.0
20260505013816 52 297 2.0 6.0 0.02 0.36 0.35 92 1011.2